Location: Newark
(42.7133°N, 87.7910°W)
Time: 20:08:54
(UTC+00:00)

Vanguard 1 - Pass Details

Date: 21 September 2019
Orbit: 653 x 3830 km, 34.2° (Epoch: 22 October)

Event Time Altitude Azimuth Distance (km) Brightness Sun altitude
Rises 11:46:55 0° 273° (W) 7,856 13.9 1.0°
Reaches altitude 10° 11:52:47 10° 270° (W) 6,605 13.6 2.0°
Maximum altitude 12:11:48 55° 201° (SSW) 2,879 12.4 5.5°
Drops below altitude 10° 12:22:39 10° 127° (SE) 3,956 14.4 7.5°
Sets 12:25:14 0° 122° (ESE) 4,625 14.8 8.0°
